When you browse on this site, cookies collect data to enhance your experience and personalize the content and advertising you see.
Visit our Privacy Policy to learn more. By continuing to use the site, you agree to this use of cookies and data.
  • En España
  • Lista de países
  • Para 7 días
  • Temperatura del agua
  • Mapa Satelital
  • El tiempo en el mapa
  • Informadores
  • user-avatar
    Iniciar sesión

    Tiempo cada hora Andora

    Hoy, 23 Marzo, Sábado

    Tiempo Temperatura Precipitaciones Viento Presión Humedad
    00:00 +3°C° 0 mm 1 mps 628 mmHg 76%
    01:00 +3°C° 0 mm 1 mps 628 mmHg 75%
    02:00 +2°C° 0 mm 1 mps 627 mmHg 74%
    03:00 +2°C° 0 mm 1 mps 627 mmHg 74%
    04:00 +2°C° 0 mm 1 mps 627 mmHg 73%
    05:00 +2°C° 0 mm 1 mps 627 mmHg 72%
    06:00 +2°C° 0 mm 1 mps 627 mmHg 69%
    07:00 +5°C° 0 mm 1 mps 628 mmHg 61%
    08:00 +7°C° 0 mm 0 mps 629 mmHg 53%
    09:00 +10°C° 0 mm 0 mps 631 mmHg 45%
    10:00 +11°C° 0 mm 0 mps 631 mmHg 42%
    11:00 +12°C° 0 mm 0 mps 631 mmHg 39%
    12:00 +14°C° 0 mm 1 mps 632 mmHg 35%
    13:00 +14°C° 0 mm 1 mps 631 mmHg 36%
    14:00 +14°C° 0 mm 1 mps 630 mmHg 37%
    15:00 +13°C° 0 mm 1 mps 630 mmHg 38%
    16:00 +11°C° 0 mm 1 mps 629 mmHg 45%
    17:00 +10°C° 0 mm 1 mps 628 mmHg 53%
    18:00 +8°C° 0 mm 1 mps 628 mmHg 60%
    19:00 +6°C° 0 mm 1 mps 627 mmHg 64%
    20:00 +5°C° 0 mm 1 mps 627 mmHg 67%
    21:00 +4°C° 0 mm 1 mps 627 mmHg 71%
    22:00 +4°C° 0 mm 1 mps 627 mmHg 70%
    23:00 +4°C° 0 mm 1 mps 627 mmHg 70%

    Mañana, 24 Marzo, Domingo

    Tiempo Temperatura Precipitaciones Viento Presión Humedad
    00:00 +3°C° 0 mm 1 mps 626 mmHg 69%
    01:00 +3°C° 0 mm 1 mps 626 mmHg 67%
    02:00 +3°C° 0 mm 1 mps 626 mmHg 65%
    03:00 +3°C° 0 mm 1 mps 626 mmHg 63%
    04:00 +3°C° 0 mm 1 mps 626 mmHg 62%
    05:00 +3°C° 0 mm 1 mps 626 mmHg 60%
    06:00 +3°C° 0 mm 1 mps 626 mmHg 59%
    07:00 +6°C° 0 mm 1 mps 627 mmHg 52%
    08:00 +8°C° 0 mm 1 mps 628 mmHg 45%
    09:00 +11°C° 0 mm 1 mps 630 mmHg 38%
    10:00 +12°C° 0 mm 1 mps 630 mmHg 36%
    11:00 +13°C° 0 mm 1 mps 630 mmHg 35%
    12:00 +14°C° 0 mm 1 mps 630 mmHg 33%
    13:00 +14°C° 0.1 mm 1 mps 630 mmHg 37%
    14:00 +13°C° 0.1 mm 1 mps 629 mmHg 40%
    15:00 +13°C° 0.1 mm 1 mps 629 mmHg 43%
    16:00 +11°C° 0.6 mm 1 mps 628 mmHg 54%
    17:00 +9°C° 0.6 mm 1 mps 627 mmHg 65%
    18:00 +7°C° 0.6 mm 1 mps 627 mmHg 76%
    19:00 +6°C° 0.2 mm 1 mps 626 mmHg 81%
    20:00 +6°C° 0.2 mm 1 mps 626 mmHg 85%
    21:00 +5°C° 0.2 mm 1 mps 626 mmHg 90%
    22:00 +4°C° 0 mm 1 mps 626 mmHg 90%
    23:00 +3°C° 0 mm 1 mps 626 mmHg 91%

    Pasado mañana, 25 Marzo, Lunes

    Tiempo Temperatura Precipitaciones Viento Presión Humedad
    00:00 +3°C° 0 mm 1 mps 625 mmHg 91%
    01:00 +2°C° 0 mm 1 mps 625 mmHg 87%
    02:00 +1°C° 0 mm 2 mps 625 mmHg 83%
    03:00 +1°C° 0 mm 2 mps 624 mmHg 79%
    04:00 -1°C° 0 mm 2 mps 624 mmHg 77%
    05:00 -1°C° 0 mm 2 mps 624 mmHg 74%
    06:00 -1°C° 0 mm 2 mps 624 mmHg 72%
    07:00 +2°C° 0 mm 2 mps 625 mmHg 65%
    08:00 +5°C° 0 mm 2 mps 626 mmHg 58%
    09:00 +7°C° 0 mm 2 mps 627 mmHg 51%
    10:00 +8°C° 0 mm 2 mps 627 mmHg 49%
    11:00 +9°C° 0 mm 2 mps 627 mmHg 47%
    12:00 +10°C° 0 mm 2 mps 628 mmHg 44%
    13:00 +10°C° 0 mm 2 mps 627 mmHg 46%
    14:00 +9°C° 0 mm 3 mps 626 mmHg 48%
    15:00 +9°C° 0 mm 3 mps 626 mmHg 50%
    16:00 +7°C° 0 mm 3 mps 625 mmHg 57%
    17:00 +3°C° 0 mm 3 mps 624 mmHg 65%
    18:00 +1°C° 0 mm 3 mps 623 mmHg 72%
    19:00 0°C° 0 mm 3 mps 624 mmHg 75%
    20:00 -1°C° 0 mm 3 mps 624 mmHg 77%
    21:00 -2°C° 0 mm 3 mps 624 mmHg 80%
    22:00 -2°C° 0 mm 3 mps 624 mmHg 81%
    23:00 -2°C° 0 mm 4 mps 624 mmHg 82%

    26 Marzo, Martes

    Tiempo Temperatura Precipitaciones Viento Presión Humedad
    00:00 -2°C° 0 mm 4 mps 625 mmHg 83%
    01:00 -3°C° 0 mm 4 mps 624 mmHg 82%
    02:00 -3°C° 0 mm 4 mps 624 mmHg 81%
    03:00 -4°C° 0 mm 4 mps 624 mmHg 79%
    04:00 -4°C° 0 mm 4 mps 624 mmHg 72%
    05:00 -5°C° 0 mm 4 mps 624 mmHg 65%
    06:00 -5°C° 0 mm 4 mps 624 mmHg 58%
    07:00 -3°C° 0 mm 4 mps 625 mmHg 46%
    08:00 -1°C° 0 mm 4 mps 626 mmHg 35%
    09:00 +1°C° 0 mm 4 mps 627 mmHg 24%
    10:00 +4°C° 0 mm 4 mps 627 mmHg 22%
    11:00 +5°C° 0 mm 4 mps 628 mmHg 19%
    12:00 +7°C° 0 mm 4 mps 628 mmHg 17%
    13:00 +7°C° 0 mm 3 mps 628 mmHg 19%
    14:00 +7°C° 0 mm 3 mps 628 mmHg 21%
    15:00 +7°C° 0 mm 3 mps 627 mmHg 23%
    16:00 +4°C° 0 mm 3 mps 627 mmHg 32%
    17:00 +3°C° 0 mm 2 mps 626 mmHg 40%
    18:00 +1°C° 0 mm 2 mps 626 mmHg 49%
    19:00 -1°C° 0 mm 2 mps 626 mmHg 51%
    20:00 -2°C° 0 mm 2 mps 626 mmHg 53%
    21:00 -3°C° 0 mm 2 mps 626 mmHg 54%
    22:00 -3°C° 0 mm 2 mps 626 mmHg 54%
    23:00 -3°C° 0 mm 2 mps 626 mmHg 54%

    27 Marzo, Miércoles

    Tiempo Temperatura Precipitaciones Viento Presión Humedad
    00:00 -1°C° 0 mm 1 mps 626 mmHg 53%
    01:00 -1°C° 0 mm 1 mps 626 mmHg 55%
    02:00 -1°C° 0 mm 1 mps 626 mmHg 56%
    03:00 -1°C° 0 mm 1 mps 626 mmHg 57%
    04:00 -1°C° 0 mm 1 mps 626 mmHg 55%
    05:00 -1°C° 0 mm 1 mps 626 mmHg 53%
    06:00 -1°C° 0 mm 1 mps 626 mmHg 51%
    07:00 +2°C° 0 mm 1 mps 628 mmHg 42%
    08:00 +5°C° 0 mm 1 mps 629 mmHg 33%
    09:00 +7°C° 0 mm 1 mps 630 mmHg 24%
    10:00 +9°C° 0 mm 1 mps 631 mmHg 24%
    11:00 +10°C° 0 mm 1 mps 631 mmHg 23%
    12:00 +10°C° 0 mm 2 mps 631 mmHg 23%
    13:00 +10°C° 0 mm 2 mps 631 mmHg 25%
    14:00 +9°C° 0 mm 2 mps 630 mmHg 28%
    15:00 +9°C° 0 mm 2 mps 630 mmHg 31%
    16:00 +7°C° 0 mm 2 mps 629 mmHg 40%
    17:00 +5°C° 0 mm 2 mps 628 mmHg 49%
    18:00 +4°C° 0 mm 1 mps 628 mmHg 59%
    19:00 +3°C° 0 mm 1 mps 627 mmHg 61%
    20:00 +1°C° 0 mm 2 mps 627 mmHg 63%
    21:00 -1°C° 0 mm 2 mps 627 mmHg 66%
    22:00 -1°C° 0 mm 2 mps 627 mmHg 63%
    23:00 -1°C° 0 mm 2 mps 627 mmHg 60%

    28 Marzo, Jueves

    Tiempo Temperatura Precipitaciones Viento Presión Humedad
    00:00 -1°C° 0 mm 2 mps 627 mmHg 57%
    01:00 -1°C° 0 mm 2 mps 627 mmHg 60%
    02:00 -2°C° 0 mm 2 mps 627 mmHg 62%
    03:00 -2°C° 0 mm 2 mps 627 mmHg 65%
    04:00 0°C° 0 mm 1 mps 627 mmHg 65%
    05:00 0°C° 0 mm 1 mps 627 mmHg 66%
    06:00 0°C° 0 mm 1 mps 627 mmHg 66%
    07:00 +3°C° 0 mm 1 mps 628 mmHg 57%
    08:00 +5°C° 0 mm 1 mps 629 mmHg 49%
    09:00 +8°C° 0 mm 1 mps 630 mmHg 40%
    10:00 +9°C° 0 mm 1 mps 630 mmHg 39%
    11:00 +10°C° 0 mm 1 mps 630 mmHg 38%
    12:00 +11°C° 0 mm 1 mps 630 mmHg 37%
    13:00 +10°C° 0.1 mm 1 mps 630 mmHg 43%
    14:00 +9°C° 0.1 mm 1 mps 629 mmHg 48%
    15:00 +8°C° 0.1 mm 1 mps 628 mmHg 53%
    16:00 +7°C° 0.2 mm 1 mps 628 mmHg 60%
    17:00 +6°C° 0.2 mm 1 mps 627 mmHg 68%
    18:00 +4°C° 0.2 mm 1 mps 627 mmHg 75%
    19:00 +4°C° 0.1 mm 1 mps 627 mmHg 79%
    20:00 +3°C° 0.1 mm 1 mps 627 mmHg 84%
    21:00 +3°C° 0.1 mm 1 mps 627 mmHg 88%
    22:00 +2°C° 0 mm 1 mps 627 mmHg 90%
    23:00 +2°C° 0 mm 1 mps 627 mmHg 92%
    Mostrar más